Location: Peterborough
(44.3091°N, 78.3197°W)
Time: 23:52:12
(UTC-04:00)

SR - Pass Details

Date: 30 March 2023
Orbit: 581 x 867 km, 66.7° (Epoch: 02 June)

Event Time Altitude Azimuth Distance (km) Brightness Sun altitude
Rises 03:11:02 0° 236° (WSW) 2,967 - -35.7°
Reaches altitude 10° 03:13:36 10° 247° (WSW) 2,016 - -35.4°
Maximum altitude 03:17:38 31° 310° (NW) 1,071 - -35.0°
Exits shadow 03:20:32 15° 6° (N) 1,607 ? -34.7°
Drops below altitude 10° 03:21:30 10° 14° (NNE) 1,929 ? -34.6°
Sets 03:23:54 0° 25° (NNE) 2,818 ? -34.3°
